User: anonymous   Login
Location: Unspecified
(0.0000°N, 0.0000°E)
Time: 23:00:51
(UTC+00:00)
Language:

STARLINK-30991 - Orbit

View from above orbital plane
View from above orbital plane
View from above satellite
View from above satellite

Ground track
Ground track

The orbit is defined by the following mean orbital elements,

1 58484U          26145.60380201 +.00000000 +00000-0 +49569-4 0 00007
2 58484  43.0053 348.8917 0001455 257.4602 102.6087 15.27573538    07
Epoch (UTC): 25 May 2026 14:29:28
Eccentricity: 0.0001455
inclination: 43.0053°
perigee height: 482 km
apogee height: 484 km
right ascension of ascending node: 348.8917°
argument of perigee: 257.4602°
revolutions per day: 15.27573538
mean anomaly at epoch: 102.6087°

The dashed part of the orbit path shows where the satellite is in the earth's shadow,  

DLR